x

9087069 - Kewaunee, Wi (kwnw3) Weather Station

9:54pm - Wed 10th Feb 2016 All times are CST. -6 hours from GMT.

  • Wind
    6mph, 10mph gusts
  • Air Temp 7°f
  • Sea Pressure 1019.8mb
  • 9087069 - Kewaunee, Wi
  • 9087069 - Kewaunee, Wi

More Historic Weather Station data

Upgrade to MSW Pro to gain access to the past 30 days of data for over 8000 Wavebouys and Weather Stations around the globe.

Join Pro

Comparision Forecast

View Surf forecast
   
Wed 02/10 9:54pm 6 10 mph 1019.8mb 7f
9:48pm 7 11 mph 1019.7mb 7f
9:42pm 7 10 mph 1019.7mb 7f
9:36pm 7 10 mph 1019.6mb 7f
9:30pm 7 13 mph 1019.5mb 8f
9:24pm 9 13 mph 1019.4mb 8f
9:18pm 10 14 mph 1019.4mb 8f
9:12pm 9 13 mph 1019.3mb 8f
9:06pm 8 13 mph 1019.2mb 8f
9:00pm  -  mph 1019.2mb 8f
8:54pm  -  mph 1019.1mb 8f
8:48pm 9 14 mph - 9f
8:42pm 10 14 mph - 9f
8:36pm 8 14 mph - 9f
8:30pm  -  mph 1019mb 9f
8:24pm  -  mph 1019mb 9f
8:18pm 9 15 mph 1019mb 9f
8:12pm 10 14 mph 1018.9mb 9f
8:06pm 8 13 mph 1018.8mb 10f
8:00pm  -  mph - 10f
7:54pm  -  mph - 10f
7:48pm  -  mph - 10f
7:42pm  -  mph - 10f
7:36pm  -  mph - 10f
7:30pm 8 13 mph 1018.5mb 10f
7:24pm 7 11 mph 1018.5mb 10f
7:18pm 8 10 mph 1018.5mb 10f
7:12pm 6 9 mph 1018.5mb 10f
7:06pm 6 8 mph 1018.4mb 10f
7:00pm 6 8 mph 1018.3mb 10f
6:54pm 5 7 mph 1018.3mb 10f
6:48pm 7 10 mph 1018.3mb 11f
6:42pm 8 11 mph 1018.2mb 11f
6:36pm 7 9 mph 1018.2mb 11f
6:30pm  -  mph 1018.1mb 11f
6:24pm  -  mph 1018mb 11f
6:18pm  -  mph 1017.9mb 11f
6:12pm  -  mph 1017.8mb 11f
6:06pm  -  mph 1017.7mb 12f
6:00pm  -  mph 1017.6mb 12f
5:54pm  -  mph 1017.6mb 12f
5:48pm 7 10 mph 1017.5mb -
5:42pm 6 10 mph 1017.4mb -
5:36pm 8 11 mph 1017.4mb -
5:30pm  -  mph 1017.3mb 13f
5:24pm  -  mph 1017.2mb 13f
5:18pm  -  mph 1017mb 13f
5:12pm  -  mph 1017mb 13f
5:06pm  -  mph 1016.9mb 14f
5:00pm  -  mph 1016.8mb 14f
4:54pm  -  mph 1016.7mb 14f
4:48pm 10 15 mph - 14f
4:42pm 9 14 mph - 14f
4:36pm 8 14 mph - 14f
4:30pm 8 13 mph 1016.3mb -
4:24pm 6 16 mph 1016.1mb -
4:18pm  -  mph 1016mb 14f
4:12pm  -  mph 1015.9mb 14f
4:06pm  -  mph 1015.9mb 15f
4:00pm 8 15 mph - 14f
3:54pm 8 16 mph - 14f
3:48pm 9 15 mph 1015.7mb 14f
3:42pm 10 15 mph 1015.6mb 14f
3:36pm 10 18 mph 1015.6mb 14f
3:30pm 9 15 mph 1015.5mb 15f
3:24pm 8 17 mph 1015.5mb 14f
3:18pm 13 17 mph 1015.4mb 15f
3:12pm 10 15 mph 1015.4mb 14f
3:06pm 10 15 mph 1015.3mb 14f
3:00pm 9 15 mph 1015.2mb 14f
2:54pm 10 15 mph 1015.2mb 14f
2:48pm 10 17 mph 1015mb 14f
2:42pm 11 18 mph 1015mb 14f
2:36pm 11 16 mph 1015mb 14f
2:30pm 14 17 mph 1015mb 14f
2:24pm 11 18 mph 1014.9mb 13f
2:18pm 13 18 mph 1015mb 13f
2:12pm 10 20 mph 1014.9mb 13f
2:06pm 10 20 mph 1014.9mb 13f
2:00pm 14 18 mph 1014.9mb 13f
1:54pm 13 17 mph 1014.9mb 13f
1:48pm 10 18 mph 1014.8mb 13f
1:42pm 13 18 mph 1014.8mb 13f
1:36pm 13 20 mph 1014.9mb 13f
1:30pm 10 18 mph 1014.8mb 12f
1:24pm 15 18 mph 1014.8mb 12f
1:18pm 14 20 mph 1014.9mb 12f
1:12pm 13 18 mph 1014.8mb 12f
1:06pm 14 20 mph 1014.8mb 12f
1:00pm 11 20 mph 1014.8mb 12f
12:54pm 14 20 mph 1014.8mb 12f
12:48pm 11 20 mph 1014.8mb 13f
12:42pm 11 18 mph 1014.7mb 12f
12:36pm 15 20 mph 1014.7mb 12f
12:30pm 15 20 mph 1014.7mb 12f
12:24pm 11 20 mph 1014.7mb 11f
12:18pm 17 21 mph 1014.8mb 12f
12:12pm 13 20 mph 1014.7mb 11f
12:06pm 15 23 mph 1014.8mb 11f
12:00pm 15 21 mph 1014.9mb 11f
11:54am 14 24 mph 1015mb 11f
11:48am 15 23 mph 1015mb 11f
11:42am 14 22 mph 1015.1mb 11f
11:36am 14 20 mph 1015.1mb 11f
11:30am 11 21 mph 1015.2mb 11f
11:24am 15 21 mph 1015.1mb 11f
11:18am 14 22 mph 1015.3mb 11f
11:12am 14 21 mph 1015.3mb 11f
11:06am 14 22 mph 1015.3mb 10f
11:00am 18 26 mph 1015.3mb 11f
10:54am 13 17 mph 1015.3mb 10f
10:48am 14 18 mph 1015.3mb 10f
10:42am 16 23 mph 1015.3mb 10f
10:36am 17 24 mph 1015.3mb 10f
10:30am 16 22 mph 1015.3mb 10f
10:24am 15 23 mph 1015.3mb 10f
10:18am 14 21 mph 1015.2mb 9f
10:12am 17 26 mph 1015.1mb 9f
10:06am 15 28 mph 1015.1mb 9f
10:00am 17 24 mph 1015.1mb 10f
9:54am 17 28 mph 1015.1mb 9f
9:48am 17 28 mph 1015mb 9f
9:42am 17 25 mph 1015mb 9f
9:36am 17 29 mph 1015mb 9f
9:30am 16 32 mph 1014.9mb 9f
9:24am 18 29 mph 1014.9mb 9f
9:18am 17 25 mph 1014.9mb 9f
9:12am 16 25 mph 1014.9mb 9f
9:06am 11 23 mph 1014.9mb 9f
9:00am 14 22 mph 1014.8mb 8f
8:54am 18 24 mph 1014.8mb 8f
8:48am 13 21 mph 1014.8mb 8f
8:42am 13 22 mph 1014.7mb 8f
8:36am 15 24 mph 1014.6mb 8f
8:30am 16 21 mph 1014.5mb 8f
8:24am 17 24 mph 1014.4mb 8f
8:18am 15 25 mph 1014.3mb 8f
8:12am 14 24 mph 1014.3mb 8f
8:06am 13 20 mph 1014.3mb 7f
8:00am 14 21 mph 1014.3mb 7f
7:54am 14 18 mph 1014.3mb 7f
7:48am 14 21 mph 1014.2mb 7f
7:42am 15 22 mph 1014.1mb 6f
7:36am 14 22 mph 1014.1mb 6f
7:30am 13 18 mph 1014mb 6f
7:24am 13 16 mph 1013.9mb 6f
7:18am 11 15 mph 1013.8mb 6f
7:12am 9 14 mph 1013.8mb 6f
7:06am 10 17 mph 1013.7mb 6f
7:00am 10 17 mph 1013.6mb 6f
6:54am 11 18 mph 1013.5mb 6f
6:48am 11 16 mph 1013.5mb 6f
6:42am 11 16 mph 1013.5mb 6f
6:36am 11 16 mph 1013.5mb 6f
6:30am 10 15 mph 1013.4mb 6f
6:24am 11 17 mph 1013.4mb 7f
6:18am 10 20 mph 1013.3mb 7f
6:12am 11 15 mph 1013.3mb 7f
6:06am 13 20 mph 1013.3mb 7f
6:00am 13 18 mph 1013.4mb 7f
5:54am 11 18 mph 1013.4mb 8f
5:48am 13 21 mph 1013.3mb 7f
5:42am 14 21 mph 1013.3mb 7f
5:36am 14 20 mph 1013.3mb 7f
5:30am 11 17 mph 1013.3mb 7f
5:24am 11 16 mph 1013.2mb 7f
5:18am 11 16 mph 1013.1mb 7f
5:12am 14 20 mph 1013mb 7f
5:06am 11 18 mph 1013mb 8f
5:00am 13 21 mph 1013mb 7f
4:54am 11 16 mph 1013mb 7f
4:48am 9 17 mph 1013mb 8f
4:42am 13 17 mph 1012.9mb 8f
4:36am 11 18 mph 1012.9mb 8f
4:30am 11 17 mph 1012.8mb 8f
4:24am 9 15 mph 1012.9mb 8f
4:18am 10 14 mph 1012.8mb 8f
4:12am 10 14 mph 1012.7mb 8f
4:06am 10 17 mph 1012.7mb 8f
4:00am 9 16 mph 1012.7mb 8f
3:54am 10 17 mph 1012.6mb 8f
3:48am  -  mph 1012.6mb 8f
3:42am  -  mph 1012.6mb 9f
3:36am  -  mph 1012.6mb 9f
3:30am 10 17 mph 1012.5mb 9f
3:24am 15 20 mph 1012.5mb 9f
3:18am 11 18 mph 1012.5mb 9f
3:12am 14 22 mph 1012.5mb 9f
3:06am 15 22 mph 1012.5mb 9f
3:00am 15 22 mph 1012.5mb 9f
2:54am 14 22 mph 1012.5mb 9f
2:48am 11 17 mph 1012.5mb 10f
2:42am 17 25 mph 1012.5mb 10f
2:36am 13 17 mph 1012.5mb 10f
2:30am 13 21 mph 1012.5mb 10f
2:24am 13 17 mph 1012.4mb 10f
2:18am 15 23 mph 1012.4mb 10f
2:12am 16 21 mph 1012.4mb 10f
2:06am 14 24 mph 1012.4mb 10f
2:00am 13 24 mph 1012.3mb 10f
1:54am 14 20 mph 1012.2mb 10f
1:48am 14 21 mph 1012.2mb 10f
1:42am 14 21 mph 1012.2mb 10f
1:36am 13 22 mph 1012.2mb 10f
1:30am 14 21 mph 1012.2mb 10f
1:24am 14 22 mph 1012.1mb 11f
1:18am 15 23 mph 1012.1mb 10f
1:12am 13 22 mph 1012.1mb 11f
1:06am 14 24 mph 1012mb 11f
1:00am 14 23 mph 1012.1mb 11f
12:54am 14 21 mph 1012.1mb 11f
12:48am 14 24 mph 1012mb 11f
12:42am 16 24 mph 1012mb 11f
12:36am 14 24 mph 1012mb 11f
12:30am 14 23 mph 1012mb 12f
12:24am 14 24 mph 1011.9mb 12f
12:18am 16 22 mph 1011.9mb 12f
12:12am 11 20 mph 1011.9mb 12f
12:06am 15 20 mph 1011.8mb 12f
12:00am 16 21 mph 1011.7mb 12f
Tue 02/09 11:54pm 14 18 mph 1011.7mb 12f
11:48pm 29 40 mph 1011.7mb 12f
11:42pm 16 30 mph 1011.7mb 12f
11:36pm 14 21 mph 1011.7mb 13f
11:30pm 14 22 mph 1011.6mb -
11:24pm 15 22 mph 1011.7mb -
11:18pm 14 22 mph 1011.7mb 13f
11:12pm 11 25 mph 1011.7mb 13f
11:06pm 11 20 mph 1011.7mb 13f
11:00pm 14 21 mph 1011.7mb 13f
10:54pm 14 22 mph 1011.7mb 13f
10:48pm 15 22 mph 1011.7mb 13f
10:42pm 15 21 mph 1011.7mb 13f
10:36pm 14 22 mph 1011.8mb 13f
10:30pm 16 21 mph 1011.8mb 13f
10:24pm 15 23 mph 1011.8mb 13f
10:18pm 14 23 mph 1011.8mb 13f
10:12pm 11 21 mph 1011.8mb 13f
10:06pm 11 25 mph 1011.8mb 13f
10:00pm 10 17 mph 1011.8mb 13f
9:54pm 13 21 mph 1011.8mb 13f
9:48pm 13 23 mph 1011.8mb 13f
9:42pm 14 18 mph 1011.8mb 13f
9:36pm 16 20 mph 1011.8mb 13f
9:30pm 15 22 mph 1011.8mb 13f
9:24pm 15 25 mph 1011.8mb 13f
9:18pm 21 29 mph 1011.9mb 13f
9:12pm 13 17 mph 1011.8mb 13f
9:06pm 11 21 mph 1011.9mb 13f
9:00pm 15 21 mph 1011.9mb 13f
8:54pm 15 18 mph 1011.9mb 13f
8:48pm  -  mph 1012mb 13f
8:42pm  -  mph 1012mb 13f
8:36pm  -  mph 1012mb 13f
8:30pm 20 30 mph 1012mb 13f
8:24pm 14 24 mph 1012.1mb 13f
8:18pm 14 23 mph 1012.1mb 14f
8:12pm 11 20 mph 1012.1mb 14f
8:06pm 13 23 mph 1012.1mb 14f
8:00pm 14 25 mph 1012mb 14f
7:54pm 15 24 mph 1011.9mb 14f
7:48pm 16 24 mph 1011.9mb 14f
7:42pm 15 23 mph 1011.9mb 14f
7:36pm 14 23 mph 1011.8mb 14f
7:30pm 14 22 mph 1011.7mb 14f
7:24pm 16 29 mph 1011.7mb 15f
7:18pm 18 28 mph 1011.6mb 15f
7:12pm 21 31 mph 1011.6mb 15f
7:06pm 14 23 mph 1011.5mb 15f
7:00pm 16 21 mph 1011.5mb 15f
6:54pm 14 21 mph 1011.5mb 15f
6:48pm  -  mph 1011.5mb 15f
6:42pm  -  mph 1011.5mb 15f
6:36pm  -  mph 1011.5mb 15f
6:30pm 11 24 mph 1011.4mb 15f
6:24pm 14 24 mph 1011.4mb 15f
6:18pm  -  mph 1011.3mb 15f
6:12pm  -  mph 1011.2mb 15f
6:06pm  -  mph 1011.2mb 16f
6:00pm  -  mph 1011.1mb 16f
5:54pm  -  mph 1011.1mb 16f
5:48pm 10 20 mph 1011.1mb 16f
5:42pm 14 21 mph 1011mb 16f
5:36pm 15 22 mph 1011mb 16f
5:30pm 14 22 mph 1011mb 16f
5:24pm 13 22 mph 1010.9mb 16f
5:18pm 15 22 mph 1010.8mb 16f
5:12pm 15 22 mph 1010.8mb 16f
5:06pm 13 23 mph 1010.6mb 16f
5:00pm 20 28 mph 1010.5mb 16f
4:54pm 17 24 mph 1010.4mb 16f
4:48pm 15 28 mph 1010.4mb 16f
4:42pm 20 28 mph 1010.3mb 16f
4:36pm 17 29 mph 1010.3mb 16f
4:30pm 14 22 mph 1010.2mb 17f
4:24pm 14 21 mph 1010.1mb 17f
4:18pm 14 25 mph 1010mb 17f
4:12pm 10 16 mph 1009.9mb 17f
4:06pm 10 18 mph 1009.8mb 17f
4:00pm 17 24 mph 1009.7mb 17f
3:54pm 17 22 mph 1009.6mb 18f
3:48pm 11 20 mph 1009.4mb 18f
3:42pm 14 20 mph 1009.4mb 18f
3:36pm 15 22 mph 1009.3mb 18f
3:30pm 14 21 mph 1009.1mb 18f
3:24pm 14 23 mph 1009mb 18f
3:18pm 15 24 mph 1008.8mb 18f
3:12pm 16 23 mph 1008.8mb 18f
3:06pm 15 21 mph 1008.9mb 18f
3:00pm 10 20 mph 1008.8mb 17f
2:54pm 10 20 mph 1008.8mb 17f
2:48pm 15 22 mph 1008.7mb 17f
2:42pm 15 24 mph 1008.7mb 17f
2:36pm 14 23 mph 1008.6mb 18f
2:30pm 13 22 mph 1008.5mb 17f
2:24pm 16 23 mph 1008.5mb 17f
2:18pm 15 24 mph 1008.4mb 17f
2:12pm 15 22 mph 1008.4mb 17f
2:06pm 18 25 mph 1008.4mb 17f
2:00pm 15 23 mph 1008.3mb 18f
1:54pm 15 22 mph 1008.2mb 18f
1:48pm 18 25 mph 1008.2mb 18f
1:42pm 14 24 mph 1008.1mb 18f
1:36pm 11 21 mph 1008.2mb 18f
1:30pm 16 26 mph 1008mb 18f
1:24pm 16 22 mph 1008mb 19f
1:18pm 13 21 mph 1008mb 18f
1:12pm 14 18 mph 1008mb 19f
1:06pm 11 21 mph 1007.9mb 18f
1:00pm 17 24 mph 1007.9mb 18f
12:54pm 18 26 mph 1007.9mb 18f
12:48pm 16 26 mph 1007.9mb 18f
12:42pm 14 23 mph 1007.9mb 18f
12:36pm 16 23 mph 1007.9mb 18f
12:30pm 16 22 mph 1007.9mb 17f
12:24pm 17 28 mph 1008mb 18f
12:18pm 16 22 mph 1007.9mb 18f
12:12pm 13 18 mph 1008mb 18f
12:06pm 10 18 mph 1008mb 17f
12:00pm 16 24 mph 1008mb 17f
11:54am 14 23 mph 1008mb 17f
11:48am 21 26 mph 1008mb 17f
11:42am 20 24 mph 1008.1mb 17f
11:36am 11 22 mph 1008.1mb 17f
11:30am 15 21 mph 1008.1mb 17f
11:24am 15 22 mph 1008.2mb 16f
11:18am 17 23 mph 1008.2mb 16f
11:12am 16 24 mph 1008.2mb 17f
11:06am 13 22 mph 1008.2mb 16f
11:00am 15 23 mph 1008.3mb 17f
10:54am 13 22 mph 1008.3mb 16f
10:48am 16 24 mph 1008.3mb 17f
10:42am 10 24 mph 1008.3mb 16f
10:36am 17 22 mph 1008.3mb 16f
10:30am 14 22 mph 1008.2mb 16f
10:24am 11 21 mph 1008.2mb 16f
10:18am 14 21 mph 1008.2mb 16f
10:12am 13 18 mph 1008.1mb 15f
10:06am 14 22 mph 1008.1mb 15f
10:00am 15 23 mph 1008.1mb 15f
9:54am 16 20 mph 1008mb 15f
9:48am 13 23 mph 1007.9mb 15f
9:42am 13 20 mph 1007.9mb 15f
9:36am 16 22 mph 1007.9mb 15f
9:30am 13 21 mph 1007.9mb 15f
9:24am 15 22 mph 1007.8mb 15f
9:18am 15 23 mph 1007.9mb 15f
9:12am 15 22 mph 1007.8mb 15f
9:06am 11 21 mph 1007.8mb 15f
9:00am 15 22 mph 1007.8mb 15f
8:54am 16 22 mph 1007.8mb 15f
8:48am 14 17 mph 1007.8mb 15f
8:42am 14 22 mph 1007.8mb 15f
8:36am 16 22 mph 1007.7mb 15f
8:30am 16 22 mph 1007.7mb 15f
8:24am 15 23 mph 1007.6mb 15f
8:18am 17 25 mph 1007.7mb 15f
8:12am 14 23 mph 1007.6mb 15f
8:06am 17 24 mph 1007.6mb 15f
8:00am 10 21 mph 1007.6mb 15f
7:54am 15 20 mph 1007.6mb 15f
7:48am 11 22 mph 1007.5mb 15f
7:42am 17 23 mph 1007.5mb 15f
7:36am 13 21 mph 1007.5mb 15f
7:30am 16 32 mph 1007.4mb 15f
7:24am 16 22 mph 1007.4mb 15f
7:18am 11 24 mph 1007.2mb 15f
7:12am 16 21 mph 1007.2mb 15f
7:06am 14 21 mph 1007.1mb 15f
7:00am 16 22 mph 1007.1mb 15f
6:54am 14 22 mph 1007mb 15f
6:48am 13 21 mph 1007.1mb 15f
6:42am 11 23 mph 1007mb 15f
6:36am 14 21 mph 1007mb 15f
6:30am 16 23 mph 1006.9mb 15f
6:24am 15 21 mph 1006.9mb 15f
6:18am 14 22 mph 1006.9mb 15f
6:12am 14 22 mph 1006.8mb 15f
6:06am 15 23 mph 1006.8mb 15f
6:00am 11 22 mph 1006.7mb 15f
5:54am 13 17 mph 1006.6mb 15f
5:48am 14 22 mph 1006.6mb 15f
5:42am 13 23 mph 1006.5mb 15f
5:36am 13 20 mph 1006.5mb 15f
5:30am 11 17 mph 1006.5mb 15f
5:24am 11 17 mph 1006.4mb 15f
5:18am 11 17 mph 1006.4mb 15f
5:12am 13 18 mph 1006.4mb 15f
5:06am 14 18 mph 1006.4mb 15f
5:00am 14 22 mph 1006.4mb 15f
4:54am 14 20 mph 1006.5mb 15f
4:48am 10 15 mph 1006.5mb 15f
4:42am 10 15 mph 1006.5mb 15f
4:36am 13 16 mph 1006.5mb 15f
4:30am 10 17 mph 1006.5mb 16f
4:24am 13 18 mph 1006.5mb 16f
4:18am 13 17 mph 1006.4mb 16f
4:12am 8 15 mph 1006.4mb 16f
4:06am 8 17 mph 1006.4mb 16f
4:00am 8 14 mph 1006.4mb 16f
3:54am 7 13 mph 1006.4mb 16f
3:48am  -  mph 1006.4mb 16f
3:42am  -  mph 1006.3mb 16f
3:36am  -  mph 1006.3mb 16f
3:30am 11 16 mph 1006.3mb 16f
3:24am 11 16 mph 1006.3mb 16f
3:18am 10 17 mph 1006.3mb 16f
3:12am 10 14 mph 1006.3mb 16f
3:06am 8 17 mph 1006.3mb 16f
3:00am 10 17 mph 1006.4mb 16f
2:54am 7 14 mph 1006.4mb 16f
2:48am 10 15 mph 1006.5mb 16f
2:42am 8 14 mph 1006.5mb 16f
2:36am 8 13 mph 1006.5mb 16f
2:30am 8 13 mph 1006.6mb 16f
2:24am 8 14 mph 1006.5mb 16f
2:18am 7 14 mph 1006.5mb 16f
2:12am 10 15 mph 1006.4mb 16f
2:06am 9 13 mph 1006.4mb 16f
2:00am 7 13 mph 1006.4mb 16f
1:54am 8 15 mph 1006.3mb 16f
1:48am 6 14 mph 1006.3mb 16f
1:42am 6 14 mph 1006.3mb 16f
1:36am 8 14 mph 1006.2mb 17f
1:30am 9 14 mph 1006.1mb 17f
1:24am 7 11 mph 1006.1mb 17f
1:18am 7 17 mph 1006.1mb 17f
1:12am 9 15 mph 1006.1mb 17f
1:06am 7 11 mph 1006.1mb 17f
1:00am 9 14 mph 1006.1mb 17f
12:54am 8 14 mph 1006.1mb 17f
12:48am 10 14 mph 1006.1mb 17f
12:42am 9 15 mph 1006.1mb 18f
12:36am 11 15 mph 1006.2mb 18f
12:30am 9 17 mph 1006.2mb 18f
12:24am 10 16 mph 1006.3mb 18f
12:18am 9 17 mph 1006.4mb 18f
12:12am 13 17 mph 1006.4mb 19f
12:06am 11 16 mph 1006.5mb 19f
12:00am 13 16 mph 1006.5mb 19f
Mon 02/08 11:54pm 11 15 mph 1006.6mb 19f
11:48pm 11 22 mph 1006.6mb 19f
11:42pm 14 20 mph 1006.6mb 19f
11:36pm 14 20 mph 1006.6mb 19f
11:30pm 13 17 mph 1006.6mb 19f
11:24pm 11 16 mph 1006.6mb 19f
11:18pm 13 17 mph 1006.5mb 19f
11:12pm 14 20 mph 1006.5mb 19f
11:06pm 14 24 mph 1006.6mb 19f
11:00pm 13 18 mph 1006.5mb 19f
10:54pm 11 20 mph 1006.5mb 20f
10:48pm 11 16 mph 1006.4mb 20f
10:42pm 14 20 mph 1006.5mb 20f
10:36pm 10 15 mph 1006.5mb 20f
10:30pm 8 18 mph 1006.5mb 20f
10:24pm 11 21 mph 1006.6mb 20f
10:18pm 11 18 mph 1006.5mb 20f
10:12pm 13 17 mph 1006.5mb 20f
10:06pm 10 16 mph 1006.5mb 20f
10:00pm 11 16 mph 1006.5mb 20f
9:54pm 10 18 mph 1006.4mb 20f
9:48pm 13 16 mph 1006.5mb 20f
9:42pm 10 16 mph 1006.5mb 20f
9:36pm 13 17 mph 1006.4mb 20f
9:30pm 11 17 mph 1006.4mb 20f
9:24pm 13 18 mph 1006.4mb 20f
9:18pm 11 23 mph 1006.5mb 20f
9:12pm 10 15 mph 1006.5mb 21f
9:06pm 8 17 mph 1006.4mb 21f
9:00pm 11 18 mph 1006.4mb 21f
8:54pm 13 15 mph 1006.4mb 21f
8:48pm 11 15 mph 1006.3mb 21f
8:42pm 10 18 mph 1006.3mb 21f
8:36pm 13 22 mph 1006.3mb 21f
8:30pm 13 22 mph 1006.2mb 22f
8:24pm 13 22 mph 1006.1mb 22f
8:18pm 10 21 mph 1006.1mb 22f
8:12pm 14 17 mph 1006.1mb 22f
8:06pm 11 17 mph 1006.1mb 23f
8:00pm 11 16 mph 1006.1mb 23f
7:54pm 14 18 mph 1006.1mb 24f
7:48pm  -  mph 1006.1mb 24f
7:42pm  -  mph 1006mb 24f
7:36pm  -  mph 1006mb 25f
7:30pm  -  mph 1006mb 25f
7:24pm  -  mph 1006mb 25f
7:18pm  -  mph 1006mb 25f
7:12pm  -  mph 1005.9mb 25f
7:06pm  -  mph 1005.9mb 25f
7:00pm 9 17 mph 1006mb 25f
6:54pm 8 14 mph 1006mb 26f
6:48pm 7 10 mph 1006mb 26f
6:42pm 6 10 mph 1006mb 25f
6:36pm 7 10 mph 1005.9mb 26f
6:30pm 6 13 mph 1005.9mb 26f
6:24pm 8 11 mph 1005.9mb 26f
6:18pm 8 11 mph 1005.8mb 26f
6:12pm 8 13 mph 1005.8mb 26f
6:06pm 8 13 mph 1005.7mb 26f
6:00pm 9 13 mph 1005.7mb 25f
5:54pm 9 15 mph 1005.6mb 26f
5:48pm 9 15 mph 1005.5mb -
5:42pm 9 14 mph 1005.5mb -
5:36pm 8 14 mph 1005.4mb -
5:30pm 9 16 mph 1005.4mb 26f
5:24pm 8 14 mph 1005.2mb 26f
5:18pm 8 17 mph 1005.2mb 26f
5:12pm 10 20 mph 1005mb 26f
5:06pm 13 18 mph 1005mb 26f
5:00pm 13 20 mph 1005mb 26f
4:54pm 11 17 mph 1005mb 27f
4:48pm 11 18 mph 1004.9mb 27f
4:42pm 14 22 mph 1004.7mb 27f
4:36pm 9 18 mph 1004.6mb 27f
4:30pm 11 18 mph 1004.6mb 27f
4:24pm 10 17 mph 1004.5mb 27f
4:18pm 11 17 mph 1004.5mb 27f
4:12pm 11 18 mph 1004.4mb 27f
4:06pm 13 15 mph 1004.2mb 28f
4:00pm 10 17 mph 1004.1mb 28f
3:54pm 10 17 mph 1004mb 28f
3:48pm  -  mph 1003.9mb 28f
3:42pm  -  mph 1003.8mb 28f
3:36pm  -  mph 1003.7mb 29f
3:30pm 14 20 mph 1003.6mb 29f
3:24pm 13 17 mph 1003.7mb 30f
3:18pm 10 21 mph 1003.6mb 30f
3:12pm 14 21 mph 1003.5mb 30f
3:06pm 11 17 mph 1003.4mb 30f
3:00pm 13 17 mph 1003.2mb 30f
2:54pm 10 18 mph 1003.1mb 30f
2:48pm 10 18 mph 1003.1mb 30f
2:42pm 11 16 mph 1003mb 30f
2:36pm 11 17 mph 1003mb 31f
2:30pm 11 16 mph 1002.8mb 31f
2:24pm 10 18 mph 1002.8mb 30f
2:18pm 11 18 mph 1002.7mb 30f
2:12pm 14 18 mph 1002.6mb 31f
2:06pm 10 20 mph 1002.6mb 31f
2:00pm 10 16 mph 1002.6mb 31f
1:54pm 13 17 mph 1002.4mb 31f
1:48pm 11 20 mph 1002.3mb 32f
1:42pm 10 18 mph 1002.3mb 32f
1:36pm 10 15 mph 1002.3mb 32f
1:30pm 11 16 mph 1002.2mb 33f
1:18pm 9 15 mph 1002.2mb 33f
1:12pm 8 13 mph 1002.1mb 33f
1:06pm 8 14 mph 1002.1mb 33f
1:00pm 11 15 mph 1002.1mb 33f
12:54pm 11 14 mph 1002.1mb 33f
12:48pm 10 15 mph 1002.1mb 33f
12:42pm 8 14 mph 1002.1mb 33f
12:36pm 7 11 mph 1002.1mb 33f
12:30pm 10 14 mph 1002.1mb 33f
12:24pm 7 13 mph 1002.1mb 33f
12:18pm 9 11 mph 1002.1mb 33f
12:12pm 7 13 mph 1002.1mb 33f
12:06pm 8 13 mph 1002.2mb 33f
12:00pm 9 13 mph 1002.2mb 33f
11:54am 6 11 mph 1002.3mb 33f
11:48am 9 11 mph 1002.2mb 33f
11:42am 9 13 mph 1002.3mb 33f
11:36am 8 13 mph 1002.4mb 33f
11:30am 7 11 mph 1002.4mb 33f
11:24am 8 13 mph 1002.5mb 33f
11:18am 8 13 mph 1002.5mb 33f
11:12am 8 11 mph 1002.5mb 33f
11:06am 8 11 mph 1002.5mb 33f
11:00am 7 14 mph 1002.4mb 33f
10:54am 9 13 mph 1002.4mb 33f
10:48am 9 13 mph 1002.3mb 33f
10:42am 8 14 mph 1002.4mb 33f
10:36am 9 13 mph 1002.3mb 33f
10:30am 8 11 mph 1002.3mb 33f
10:24am 5 10 mph 1002.3mb 33f
10:18am 9 11 mph 1002.3mb 33f
10:12am 8 11 mph 1002.2mb 33f
10:06am 9 13 mph 1002.1mb 33f
10:00am 8 13 mph 1002mb 33f
9:54am 10 13 mph 1001.9mb 33f
9:48am 9 14 mph 1001.8mb 33f
9:42am 9 13 mph 1001.7mb 33f
9:36am 9 14 mph 1001.7mb 33f
9:30am 8 14 mph 1001.6mb 33f
9:18am 11 15 mph 1001.6mb 33f
9:12am 8 14 mph 1001.5mb 33f
9:06am 9 13 mph 1001.4mb 33f
9:00am 10 13 mph 1001.4mb 33f
8:54am 8 13 mph 1001.4mb 33f
8:48am 11 15 mph 1001.3mb 33f
8:42am 7 10 mph 1001.3mb 32f
8:36am 8 11 mph 1001.2mb 33f
8:30am 8 11 mph 1001.2mb 32f
8:24am 9 13 mph 1001.2mb 33f
8:18am 10 13 mph 1001.1mb 33f
8:12am 8 11 mph 1001.1mb 33f
8:06am 8 11 mph 1001.1mb 33f
8:00am 7 11 mph 1001.2mb 33f
7:54am 8 11 mph 1001.1mb 33f
7:48am 7 10 mph 1001.1mb 33f
7:42am 8 11 mph 1001.1mb 33f
7:36am 7 10 mph 1001mb 33f
7:30am 7 11 mph 1001.1mb 33f
7:24am 6 9 mph 1001mb 33f
7:18am 6 8 mph 1001mb 33f
7:12am 5 7 mph 1000.9mb 33f
7:06am 6 8 mph 1000.9mb 33f
7:00am 2 8 mph 1000.9mb 33f
6:54am 6 8 mph 1000.8mb 33f
6:48am 2 7 mph 1000.7mb 33f
6:42am 3 6 mph 1000.7mb 33f
6:36am 3 7 mph 1000.7mb 33f
6:30am 5 8 mph 1000.7mb 33f
6:24am 5 8 mph 1000.6mb 32f
6:18am 5 7 mph 1000.6mb 33f
6:12am 3 8 mph 1000.5mb 32f
6:06am 6 8 mph 1000.6mb 33f
6:00am 5 7 mph 1000.5mb 32f
5:54am 6 7 mph 1000.4mb 32f
5:48am 6 7 mph 1000.4mb 32f
5:42am 5 8 mph 1000.4mb 32f
5:36am 6 7 mph 1000.3mb 32f
5:30am 5 6 mph 1000.3mb 32f
5:24am 3 7 mph 1000.3mb 32f
5:18am 2 8 mph 1000.3mb 33f
5:12am 6 9 mph 1000.3mb 32f
5:06am 3 7 mph 1000.2mb 32f
5:00am 3 6 mph 1000.3mb 33f
4:54am 3 6 mph 1000.3mb 32f
4:48am 3 6 mph 1000.3mb 32f
4:42am 3 6 mph 1000.4mb 33f
4:36am 3 6 mph 1000.4mb 33f
4:30am 3 6 mph 1000.3mb 33f
4:24am 3 6 mph 1000.3mb 32f
4:18am 3 6 mph 1000.3mb 33f
4:12am 2 6 mph 1000.2mb 33f
4:06am 2 3 mph 1000.2mb 33f
4:00am 2 7 mph 1000.2mb 33f
3:54am 3 7 mph 1000.2mb 33f
3:48am  -  mph 1000.1mb 33f
3:42am  -  mph 1000.1mb 33f
3:36am  -  mph 1000.1mb 33f
3:30am 6 8 mph 1000.2mb 33f
3:24am 7 9 mph 1000.1mb 33f
3:18am 6 10 mph 1000.1mb 33f
3:12am 6 9 mph 1000.1mb 33f
3:06am 5 9 mph 1000.1mb 34f
3:00am 6 11 mph 1000.2mb 34f
2:54am 5 13 mph 1000.2mb 34f
2:48am 8 13 mph 1000.2mb 34f
2:42am 7 10 mph 1000.2mb 34f
2:36am 6 9 mph 1000.2mb 34f
2:30am 5 7 mph 1000.2mb 34f
2:24am 5 9 mph 1000.3mb 34f
2:18am 5 9 mph 1000.3mb 34f
2:12am 5 10 mph 1000.3mb 34f
2:06am 6 10 mph 1000.3mb 34f
2:00am 5 8 mph 1000.3mb 34f
1:54am 6 8 mph 1000.3mb 34f
1:48am 6 9 mph 1000.3mb 34f
1:42am 5 8 mph 1000.3mb 34f
1:36am 3 7 mph 1000.3mb 34f
1:30am 3 7 mph 1000.3mb 34f
1:24am 3 8 mph 1000.3mb 34f
1:18am 5 7 mph 1000.4mb 34f
1:12am 3 6 mph 1000.4mb 34f
1:06am 2 7 mph 1000.5mb 34f
1:00am 5 8 mph 1000.6mb 34f
12:54am 5 8 mph 1000.6mb 34f
12:48am 3 8 mph 1000.6mb 34f
12:42am 5 8 mph 1000.7mb 35f
12:36am 5 8 mph 1000.7mb 35f
12:30am 5 9 mph 1000.8mb 35f
12:24am 5 9 mph 1000.8mb 35f
12:18am 5 8 mph 1000.8mb 35f
12:12am 3 8 mph 1000.9mb 35f
12:06am 3 7 mph 1001mb 35f
12:00am 2 8 mph 1001mb 35f
Sun 02/07 11:54pm 3 8 mph 1001mb 35f
11:48pm 5 8 mph 1001mb 35f
11:42pm 7 10 mph 1001.1mb 35f
11:36pm 8 10 mph 1001.1mb 35f
11:30pm 5 8 mph 1001.1mb 35f
11:24pm 5 8 mph 1001.1mb 35f
11:18pm 5 9 mph 1001.3mb 36f
11:12pm 6 9 mph 1001.3mb 36f
11:06pm 6 9 mph 1001.4mb 36f
11:00pm 6 8 mph 1001.5mb 36f
10:54pm 5 8 mph 1001.5mb 36f
10:48pm 5 8 mph 1001.5mb 36f
10:42pm 5 10 mph 1001.5mb 37f
10:36pm 8 9 mph 1001.4mb 37f
10:30pm 8 11 mph 1001.4mb 37f
10:24pm 8 11 mph 1001.4mb 37f
10:18pm 8 11 mph 1001.4mb 37f
10:12pm 9 11 mph 1001.4mb 37f
10:06pm 8 11 mph 1001.4mb 37f
10:00pm 9 13 mph 1001.5mb 37f
9:54pm 8 13 mph 1001.5mb 37f
9:48pm 9 15 mph 1001.6mb 37f
9:42pm 7 13 mph 1001.6mb 38f
9:36pm 9 13 mph 1001.5mb 38f
9:30pm 13 16 mph 1001.6mb 38f
9:24pm 11 16 mph 1001.7mb 38f
9:18pm 10 14 mph 1001.8mb 38f
9:12pm 11 15 mph 1001.9mb 38f
9:06pm 9 14 mph 1001.9mb 38f
9:00pm 7 14 mph 1002mb 37f
8:54pm 7 13 mph 1002.1mb 38f
8:48pm 7 10 mph 1002.1mb 38f
8:42pm 7 11 mph 1002.1mb 38f
8:36pm 3 10 mph 1002.1mb 38f
8:30pm 6 9 mph 1002.2mb 38f
8:24pm 6 10 mph 1002.2mb 38f
8:18pm 6 11 mph 1002.3mb 38f
8:12pm 8 11 mph 1002.3mb 38f
8:06pm 9 10 mph 1002.3mb 38f
8:00pm  -  mph 1002.3mb 38f
7:54pm  -  mph 1002.3mb 38f
7:48pm  -  mph 1002.3mb 38f
7:42pm  -  mph 1002.3mb 38f
7:36pm  -  mph 1002.3mb 38f
7:30pm 9 11 mph 1002.3mb 38f
7:24pm 9 13 mph 1002.4mb 38f
7:18pm  -  mph 1002.4mb 38f
7:12pm  -  mph 1002.4mb 38f
7:06pm  -  mph 1002.4mb 38f
7:00pm  -  mph 1002.4mb 38f
6:54pm  -  mph 1002.4mb 38f
6:48pm  -  mph 1002.5mb 38f
6:42pm  -  mph 1002.5mb 38f
6:36pm  -  mph 1002.6mb 38f
6:30pm 5 8 mph 1002.6mb 39f
6:24pm 7 9 mph 1002.6mb 38f
6:18pm 8 13 mph 1002.6mb 39f
6:12pm 9 13 mph 1002.6mb 38f
6:06pm 9 11 mph 1002.6mb 38f
6:00pm 8 9 mph 1002.6mb 38f
5:54pm 8 9 mph 1002.6mb 38f
5:48pm 8 9 mph 1002.6mb -
5:42pm 7 9 mph 1002.7mb -
5:36pm 7 10 mph 1002.7mb -
5:30pm 8 9 mph 1002.7mb 38f
5:24pm 8 10 mph 1002.7mb 38f
5:18pm  -  mph 1002.7mb 38f
5:12pm  -  mph 1002.7mb 38f
5:06pm  -  mph 1002.7mb 38f
5:00pm 6 9 mph 1002.7mb 38f
4:54pm 6 8 mph 1002.6mb 39f
4:48pm 7 9 mph 1002.6mb 39f
4:42pm 6 10 mph 1002.6mb 39f
4:36pm 7 10 mph 1002.6mb 39f
4:30pm 8 10 mph 1002.5mb 39f
4:24pm 6 9 mph 1002.5mb 39f
4:18pm 7 9 mph 1002.5mb 39f
4:12pm 8 10 mph 1002.4mb 39f
4:06pm 8 13 mph 1002.3mb 39f
4:00pm 7 10 mph 1002.3mb 39f
3:54pm 10 11 mph 1002.2mb 40f
3:48pm  -  mph 1002.2mb 40f
3:42pm  -  mph 1002.2mb 40f
3:36pm  -  mph 1002.1mb 40f
3:30pm 9 11 mph 1002mb 40f
3:24pm 9 13 mph 1002mb 40f
3:18pm 10 13 mph 1002mb 40f
3:12pm 9 14 mph 1001.9mb 40f
3:06pm 10 13 mph 1001.9mb 40f
3:00pm 8 11 mph 1001.9mb 40f
2:54pm 9 11 mph 1001.8mb 40f
2:48pm 7 10 mph 1001.8mb 41f
2:42pm 7 11 mph 1001.8mb 41f
2:36pm 10 14 mph 1001.8mb 41f
2:30pm 7 14 mph 1001.8mb 41f
2:24pm 7 11 mph 1001.6mb 41f
2:18pm 7 13 mph 1001.6mb 42f
2:12pm 7 13 mph 1001.5mb 42f
2:06pm 7 13 mph 1001.6mb 40f
2:00pm 8 16 mph 1001.5mb 41f
1:54pm 10 14 mph 1001.5mb 41f
1:48pm 10 14 mph 1001.4mb 42f
1:42pm 9 13 mph 1001.3mb 41f
1:36pm 9 13 mph 1001.3mb 41f
1:30pm 7 13 mph 1001.3mb 41f
1:24pm 8 11 mph 1001.3mb 41f
1:18pm 8 11 mph 1001.4mb 41f
1:12pm 7 14 mph 1001.4mb 41f
1:06pm 8 14 mph 1001.4mb 41f
1:00pm 9 13 mph 1001.4mb 41f
12:54pm 9 14 mph 1001.5mb 41f
12:48pm 7 14 mph 1001.5mb 41f
12:42pm 8 14 mph 1001.6mb 41f
12:36pm 10 15 mph 1001.7mb 41f
12:30pm 9 14 mph 1001.7mb 40f
12:24pm 11 16 mph 1001.8mb 40f
12:18pm 8 16 mph 1001.8mb 40f
12:12pm 8 14 mph 1001.8mb 40f
12:06pm 10 21 mph 1001.9mb 40f
12:00pm 13 17 mph 1001.9mb 40f
11:54am 11 17 mph 1002mb 41f
11:48am 6 11 mph 1002.1mb 40f
11:42am 8 14 mph 1002.3mb 40f
11:36am 8 14 mph 1002.5mb 40f
11:30am 8 15 mph 1002.6mb 40f
11:24am 9 17 mph 1002.6mb 40f
11:18am 10 16 mph 1002.6mb 40f
11:12am 8 14 mph 1002.7mb 40f
11:06am 11 15 mph 1002.7mb 40f
11:00am 9 15 mph 1002.8mb 40f
10:54am 9 13 mph 1002.9mb 40f
10:48am 7 13 mph 1002.9mb 40f
10:42am 10 16 mph 1002.8mb 40f
10:36am 11 14 mph 1002.9mb 40f
10:30am 11 14 mph 1003mb 40f
10:24am 9 16 mph 1003mb 40f
10:18am 10 18 mph 1003.1mb 40f
10:12am 9 15 mph 1003.1mb 39f
10:06am 10 18 mph 1003.1mb 39f
10:00am 9 14 mph 1003.2mb 37f
9:54am 8 10 mph 1003.3mb 36f
9:48am 9 10 mph 1003.3mb 35f
9:42am 9 10 mph 1003.4mb 35f
9:36am 9 11 mph 1003.6mb 35f
9:30am 10
mph
1003.6mb 35f
9:24am 9 10 mph 1003.7mb 36f
9:18am 9 11 mph 1003.8mb 35f
9:12am 9 10 mph 1003.8mb 35f
9:06am 9 10 mph 1003.9mb 35f
9:00am 8 9 mph 1004mb 35f
8:54am 7 9 mph 1004mb 35f
8:48am 7 9 mph 1004.1mb 35f
8:42am 8 9 mph 1004.2mb 35f
8:36am 8 10 mph 1004.1mb 35f
8:30am 9 11 mph 1004.1mb 35f
8:24am 9 10 mph 1004.3mb 35f
8:18am 9 11 mph 1004.3mb 35f
8:12am 8 10 mph 1004.4mb 35f
8:06am 8 10 mph 1004.5mb 35f
8:00am 9 11 mph 1004.6mb 35f
7:54am 7 10 mph 1004.5mb 35f
7:48am 10 13 mph 1004.5mb 35f
7:42am 11 14 mph 1004.6mb 35f
7:36am 13 14 mph 1004.6mb 35f
7:30am 11 13 mph 1004.8mb 35f
7:24am 10
mph
1004.9mb 35f
7:18am 9 13 mph 1005mb 35f
7:12am 10 11 mph 1005mb 35f
7:06am 9 13 mph 1005.1mb 35f
7:00am 10 14 mph 1005.2mb 35f
6:54am 11 14 mph 1005.1mb 35f
6:48am 13 18 mph 1005.1mb 35f
6:42am 15 17 mph 1005.3mb 35f
6:36am 13 17 mph 1005.4mb 35f
6:30am 11 15 mph 1005.4mb 35f
6:24am 13 16 mph 1005.4mb 35f
6:18am 14 16 mph 1005.6mb 35f
6:12am 14 16 mph 1005.9mb 35f
6:06am 14 16 mph 1006mb 35f
6:00am 13 20 mph 1005.9mb 35f
5:54am 14 17 mph 1006mb 35f
5:48am 13 17 mph 1006mb 35f
5:42am 14 16 mph 1005.9mb 35f
5:36am 14 18 mph 1006mb 35f
5:30am 13 16 mph 1006.1mb 35f
5:24am 13 16 mph 1006.3mb 35f
5:18am 13 15 mph 1006.5mb 35f
5:12am 14 15 mph 1006.6mb 35f
5:06am 14 17 mph 1006.6mb 35f
5:00am 11 17 mph 1006.7mb 35f
4:54am 15 18 mph 1006.7mb 34f
4:48am 17 21 mph 1006.7mb 34f
4:42am 18 22 mph 1006.7mb 34f